BREEZE-M DEB [TANK] (50004 NORAD) Tracking and Keplerian Element Data

This shows tracking and keplerian element data for the satellite.

Feedback or suggestion? Click here.




ElementValue
Catalog50004
NameBREEZE-M DEB [TANK]
Epoch Orbit100
Epoch Day11.73961092
Epoch Year2022
RAAN260.4346
Inclination49.4587
Eccentricity0.6370509
Argument of Perigee190.6574
Mean Anonmoly143.8014
Mean Motion3.4118799
Decay Rate-2.9E-07
L11 50004U 21123D 22011.73961092 -.00000029 00000+0 20466-3 0 9993
L22 50004 49.4587 260.4346 6370509 190.6574 143.8014 3.41187990 1009



Live tracking and technical data element details for BREEZE-M DEB [TANK] (NORAD 50004). BREEZE-M DEB [TANK] can be tracked NOW for your location showing map with azimuth and elevation plus other details from your city location.







IsCatalogInMostPopularTable: catalog: 50004, numindb: 33
Update: records affected: 1



GetName: 50004 BREEZE-M DEB [TANK]

Hit Count: updated at: Sun, 04 Jun 2023 23:42:55 GMT